Regional Weather Roundup
Issued by NWS

Home | Current Version | Previous Version | Graphics & Text | Print | Product List | Glossary On
Versions: 1 2 3 4 5 6 7 8 9 10 11 12 13 14 15 16 17 18 19 20 21 22 23 24 25 26 27 28 29 30 31 32 33 34 35 36 37 38 39 40 41 42 43 44 45 46 47 48 49 50
440
ASUS43 KFSD 201810
RWRSD

WEATHER ROUNDUP FOR SOUTH DAKOTA
NATIONAL WEATHER SERVICE SIOUX FALLS SD
1200 PM CST TUE FEB 20 2018

NOTE: "FAIR" INDICATES FEW OR NO CLOUDS BELOW 12,000 FEET WITH NO
SIGNIFICANT WEATHER AND/OR OBSTRUCTIONS TO VISIBILITY.


SDZ001>005-009-010-012>017-201900-
NORTHWEST AND NORTH CENTRAL SOUTH DAKOTA

CITY           SKY/WX    TMP DP  RH WIND       PRES   REMARKS
BUFFALO          N/A     -2 -10  69 W13       30.00S WCI -20
FAITH            N/A      0  -5  79 W10       30.13R WCI -16
MOBRIDGE       FAIR      10   1  67 NW13      30.14R WCI  -5
$$

SDZ012>016-024>037-041>051-057-063-072>074-201900-
SOUTHWEST AND SOUTH CENTRAL SOUTH DAKOTA

CITY           SKY/WX    TMP DP  RH WIND       PRES   REMARKS
RAPID CTY ARPT FAIR       0  -6  76 S5        30.11R WCI -10
PIERRE         FAIR       7   1  76 NW16      30.20R WCI -11
CUSTER         FAIR       5 -10  50 W13       29.83R WCI -12
ELLSWORTH AFB  FAIR       3  -6  65 S6        30.09R WCI  -8
PHILIP         FAIR       5  -2  72 W8        30.19R WCI  -8
PINE RIDGE     FAIR       1  -6  72 SW7       30.11S WCI -12
SPEARFISH        N/A      0  -9  65 NW13      30.02R WCI -18
WINNER         FAIR       8  -1  66 NW18      30.18R WCI -11
$$

SDZ004>011-016>023-039-040-201900-
NORTHEAST SOUTH DAKOTA

CITY           SKY/WX    TMP DP  RH WIND       PRES   REMARKS
ABERDEEN       FAIR      10   2  69 NW16      30.17R WCI  -7
WATERTOWN      PTSUNNY    7   0  73 NW20      30.05R WCI -13
BROOKINGS      LGT SNOW   7   1  78 NW20      30.05R WCI -13
SISSETON         N/A     10   3  73 NW23      30.09R WCI -10
$$

SDZ017-020-022-023-036>040-048>070-201900-
SOUTHEAST SOUTH DAKOTA

CITY           SKY/WX    TMP DP  RH WIND       PRES   REMARKS
SIOUX FALLS    PTSUNNY    9   2  73 NW20G28   30.09R WCI -10
HURON          PTSUNNY   10   3  73 NW22      30.16S WCI -10
CHAMBERLAIN    FAIR       9   2  75 W18       30.19R WCI -10
MITCHELL       FLURRIES  10   3  73 NW21      30.17R WCI  -9
YANKTON        FAIR       9   3  77 NW25      30.14S HAZE    WCI -12
$$

ABBREVIATIONS USED IN REMARKS
   TC - TEMPERATURE IN CELSIUS
  WCI - WIND CHILL INDEX
   HX - HEAT INDEX
  VSB - VISIBILITY





USA.gov is the U.S. government's official web portal to all federal, state and local government web resources and services.